Weather History for Fort Worth, TX

Change the Weather History Date:

Friday, February 28, 2014

  Actual Average Record
Temperature  
Mean Temperature 63 °F -  
Max Temperature 84 °F 59 °F 84 °F (2014)
Min Temperature 42 °F 39 °F 28 °F (2002)
Degree Days  
Heating Degree Days 2    
Growing Degree Days 13 (Base 50)    
Moisture  
Dew Point 34 °F    
Average Humidity 43    
Maximum Humidity 76    
Minimum Humidity 15    
Precipitation  
Precipitation 0.00 in - - ()
Sea Level Pressure  
Sea Level Pressure 29.72 in    
Wind  
Wind Speed 13 mph (SSW)    
Max Wind Speed 18 mph    
Max Gust Speed 25 mph    
Visibility 10 miles    
Events      
Averages and records for this station are not official NWS values.
T = Trace of Precipitation, MM = Missing Value Source: NWS Daily Summary

Daily Weather History Graph

Daily Weather History Graph

Search for Another Location

Airport:

Trip Planner

Search our weather history database for the weather conditions in past years. The results will help you decide how hot, cold, wet, or windy it might be!

Date:

Astronomy

Feb. 28, 2014 Rise Set
Actual Time 6:58 AM CST 6:25 PM CST
Civil Twilight 6:33 AM CST 6:50 PM CST
Nautical Twilight 6:05 AM CST 7:19 PM CST
Astronomical Twilight 5:36 AM CST 7:47 PM CST
Moon 6:13 AM CST (2/28) 6:03 PM CST (2/28)
Length of Visible Light 12h 17m
Length of Day
11h 27m
Waning Crescent, 1% of the Moon is Illuminated
Feb 28
Waning Crescent
Mar 1
New
Mar 8
First Quarter
Mar 16
Full
Mar 23
Last Quarter

Hourly Weather History & Observations

Time (CST) Temp. Windchill Dew Point Humidity Pressure Visibility Wind Dir Wind Speed Gust Speed Precip Events Conditions
12:53 AM 44.1 °F 37.7 °F 30.9 °F 60% 29.82 in 10.0 mi SSE 12.7 mph - N/A   Clear
1:53 AM 45.0 °F 37.6 °F 30.9 °F 58% 29.79 in 10.0 mi SSE 17.3 mph - N/A   Clear
2:53 AM 44.1 °F 37.1 °F 32.0 °F 63% 29.76 in 10.0 mi SSE 15.0 mph 23.0 mph N/A   Clear
3:53 AM 44.1 °F 36.5 °F 33.1 °F 65% 29.73 in 10.0 mi SSE 17.3 mph - N/A   Clear
4:53 AM 43.0 °F 34.8 °F 34.0 °F 71% 29.71 in 10.0 mi SSE 18.4 mph - N/A   Clear
5:53 AM 43.0 °F 35.1 °F 35.1 °F 74% 29.75 in 10.0 mi South 17.3 mph 21.9 mph N/A   Clear
6:53 AM 42.1 °F 35.2 °F 35.1 °F 76% 29.75 in 9.0 mi South 12.7 mph - N/A   Clear
7:53 AM 44.1 °F 38.1 °F 36.0 °F 73% 29.75 in 8.0 mi South 11.5 mph - N/A   Clear
8:53 AM 48.0 °F - 37.9 °F 68% 29.75 in 10.0 mi South 15.0 mph - N/A   Clear
9:53 AM 54.0 °F - 39.0 °F 57% 29.74 in 10.0 mi SSW 13.8 mph 23.0 mph N/A   Clear
10:53 AM 61.0 °F - 41.0 °F 48% 29.71 in 10.0 mi SSW 9.2 mph 18.4 mph N/A   Clear
11:53 AM 71.1 °F - 39.9 °F 32% 29.69 in 10.0 mi South 11.5 mph 23.0 mph N/A   Clear
12:53 PM 77.0 °F - 36.0 °F 23% 29.66 in 10.0 mi SW 15.0 mph - N/A   Clear
1:53 PM 81.0 °F - 34.0 °F 18% 29.64 in 10.0 mi WSW 18.4 mph 25.3 mph N/A   Clear
2:53 PM 82.9 °F - 34.0 °F 17% 29.65 in 10.0 mi West 15.0 mph - N/A   Clear
3:53 PM 84.0 °F - 32.0 °F 15% 29.64 in 10.0 mi West 15.0 mph 20.7 mph N/A   Clear
4:53 PM 82.9 °F - 30.0 °F 15% 29.65 in 10.0 mi West 10.4 mph 20.7 mph N/A   Clear
5:53 PM 81.0 °F - 28.9 °F 15% 29.66 in 10.0 mi WSW 6.9 mph - N/A   Clear
6:53 PM 75.0 °F - 28.0 °F 18% 29.70 in 10.0 mi West 3.5 mph - N/A   Clear
7:53 PM 73.0 °F - 28.0 °F 19% 29.73 in 10.0 mi Calm Calm - N/A   Clear
8:53 PM 69.1 °F - 28.9 °F 22% 29.74 in 10.0 mi Calm Calm - N/A   Clear
9:53 PM 64.0 °F - 32.0 °F 30% 29.76 in 10.0 mi East 10.4 mph - N/A   Overcast
10:53 PM 62.1 °F - 39.0 °F 43% 29.78 in 10.0 mi SSE 6.9 mph - N/A   Overcast
11:53 PM 60.1 °F - 46.9 °F 62% 29.78 in 10.0 mi SE 4.6 mph - N/A   Overcast